Location: Bluff Heights
(33.7692°N, 118.1592°W)
Time: 10:33:23
(UTC+00:00)

Tiros 1 - Pass Details

Date: 30 July 2021
Orbit: 630 x 663 km, 48.4° (Epoch: 22 September)

Event Time Altitude Azimuth Distance (km) Brightness Sun altitude
Rises 09:25:39 0° 305° (NW) 2,939 - -33.9°
Reaches altitude 10° 09:28:01 10° 301° (WNW) 2,023 - -33.7°
Maximum altitude 09:32:35 58° 222° (SW) 735 - -33.3°
Drops below altitude 10° 09:37:06 10° 144° (SE) 1,999 - -32.8°
Sets 09:39:25 0° 140° (SE) 2,902 - -32.6°
